EUTELSAT 7 WEST A 1 37816U 11051A 21060.75935187 -.00000068 00000-0 00000-0 0 9992 2 37816 0.0689 30.6292 0001683 201.9591 193.2395 1.00270820 34501 BLOCK DM-SL R/B 1 37817U 11051B 21060.62585955 -.00000024 00000-0 00000-0 0 9995 2 37817 0.4692 327.8768 6816017 300.4070 165.4580 2.20340731 75949